QPF
0.08 0.07 0.06 0.05 0.05 0.06 0.06 0.07 0.08 0.07 0.06 0.05 0.04 0.03 0.03 0.03 0.03 0.02 0.02 0.03 0.03 0.03 0.04 0.06 0.06 0.05 0.04 0.03 0.02 0.02 0.02 0.02 0.01 0.01 0.02 0.02 0.03 0.04
0.08 0.08 0.06 0.05 0.04 0.04 0.05 0.06 0.07 0.07 0.06 0.04 0.04 0.02 0.02 0.02 0.02 0.02 0.02 0.03 0.03 0.04 0.04 0.06 0.05 0.03 0.02 0.01 0.01 0.01 0.01 0.01 0.00 0.00 0.01 0.01 0.01 0.03
0.04 0.05 0.05 0.05 0.07 0.05 0.04 0.04 0.04 0.06 0.05 0.04 0.04 0.03 0.03 0.03 0.03 0.03 0.02 0.02 0.02 0.02 0.02 0.04 0.03 0.02 0.01 0.00 0.00 0.01 0.01 0.01 0.01 0.00 0.00 0.01 0.01 0.01
0.04 0.05 0.06 0.07 0.08 0.07 0.04 0.03 0.03 0.04 0.05 0.05 0.05 0.05 0.04 0.04 0.04 0.04 0.02 0.01 0.01 0.02 0.02 0.03 0.03 0.02 0.01 0.00 0.00 0.00 0.00 0.01 0.01 0.01 0.01 0.01 0.01 0.02
0.06 0.07 0.08 0.08 0.07 0.07 0.05 0.03 0.03 0.04 0.05 0.05 0.05 0.06 0.04 0.04 0.04 0.03 0.04 0.04 0.02 0.02 0.02 0.03 0.03 0.02 0.02 0.01 0.00 0.00 0.00 0.01 0.01 0.01 0.01 0.01 0.02 0.02
0.05 0.05 0.04 0.03 0.03 0.04 0.06 0.06 0.05 0.06 0.07 0.07 0.07 0.07 0.07 0.06 0.04 0.04 0.06 0.05 0.04 0.04 0.04 0.04 0.04 0.04 0.03 0.01 0.01 0.00 0.00 0.01 0.01 0.01 0.01 0.01 0.02 0.02
0.02 0.02 0.03 0.03 0.03 0.03 0.04 0.05 0.07 0.08 0.08 0.08 0.09 0.09 0.09 0.09 0.07 0.06 0.07 0.07 0.06 0.04 0.05 0.05 0.05 0.05 0.05 0.03 0.01 0.01 0.01 0.01 0.01 0.01 0.01 0.01 0.01 0.01
0.02 0.02 0.02 0.03 0.02 0.02 0.03 0.05 0.07 0.07 0.06 0.07 0.07 0.07 0.05 0.04 0.04 0.04 0.04 0.05 0.05 0.04 0.05 0.06 0.06 0.06 0.06 0.03 0.02 0.01 0.00 0.01 0.01 0.02 0.01 0.01 0.01 0.01
0.02 0.03 0.03 0.03 0.03 0.03 0.04 0.04 0.04 0.04 0.05 0.06 0.07 0.06 0.06 0.04 0.04 0.03 0.03 0.03 0.04 0.05 0.05 0.05 0.06 0.07 0.06 0.04 0.04 0.02 0.01 0.01 0.01 0.03 0.02 0.02 0.02 0.01
0.03 0.03 0.04 0.04 0.03 0.04 0.04 0.04 0.04 0.03 0.03 0.04 0.04 0.06 0.06 0.06 0.05 0.04 0.04 0.05 0.06 0.06 0.05 0.05 0.05 0.06 0.05 0.05 0.05 0.04 0.03 0.02 0.01 0.02 0.02 0.02 0.02 0.02
0.03 0.04 0.04 0.03 0.03 0.04 0.05 0.07 0.06 0.04 0.03 0.03 0.03 0.04 0.05 0.06 0.06 0.05 0.04 0.04 0.04 0.04 0.05 0.05 0.05 0.05 0.05 0.05 0.05 0.05 0.04 0.03 0.02 0.02 0.02 0.02 0.02 0.02
0.03 0.03 0.03 0.02 0.02 0.03 0.04 0.05 0.05 0.04 0.04 0.05 0.05 0.05 0.05 0.06 0.06 0.05 0.05 0.05 0.05 0.05 0.06 0.06 0.06 0.07 0.06 0.05 0.06 0.06 0.05 0.05 0.04 0.04 0.03 0.03 0.04 0.04
0.02 0.02 0.03 0.03 0.03 0.03 0.04 0.03 0.03 0.03 0.03 0.05 0.06 0.06 0.06 0.05 0.06 0.05 0.06 0.06 0.07 0.06 0.05 0.08 0.08 0.09 0.09 0.07 0.06 0.06 0.05 0.05 0.05 0.05 0.06 0.05 0.05 0.05
0.02 0.03 0.04 0.05 0.05 0.06 0.05 0.04 0.04 0.04 0.04 0.04 0.04 0.04 0.04 0.04 0.05 0.06 0.07 0.07 0.07 0.07 0.08 0.08 0.08 0.09 0.08 0.08 0.08 0.07 0.07 0.06 0.06 0.06 0.06 0.07 0.06 0.07
0.03 0.04 0.04 0.04 0.05 0.06 0.07 0.06 0.05 0.04 0.04 0.04 0.05 0.04 0.03 0.04 0.06 0.07 0.08 0.09 0.10 0.10 0.10 0.08 0.07 0.09 0.10 0.11 0.10 0.10 0.10 0.08 0.06 0.05 0.05 0.05 0.05 0.05
0.02 0.02 0.02 0.03 0.03 0.04 0.05 0.05 0.05 0.05 0.05 0.04 0.05 0.05 0.05 0.06 0.08 0.10 0.12 0.12 0.12 0.11 0.11 0.11 0.11 0.12 0.12 0.13 0.13 0.12 0.09 0.08 0.07 0.06 0.05 0.05 0.05 0.04
0.01 0.02 0.03 0.04 0.04 0.04 0.05 0.05 0.05 0.04 0.04 0.05 0.05 0.05 0.05 0.05 0.07 0.09 0.12 0.14 0.14 0.13 0.13 0.12 0.12 0.12 0.11 0.10 0.11 0.11 0.09 0.08 0.07 0.06 0.05 0.05 0.05 0.04
0.02 0.03 0.03 0.03 0.03 0.03 0.02 0.03 0.03 0.03 0.04 0.05 0.05 0.06 0.06 0.06 0.07 0.08 0.10 0.12 0.14 0.14 0.13 0.11 0.10 0.09 0.10 0.11 0.12 0.10 0.10 0.11 0.08 0.07 0.05 0.04 0.05 0.05
0.01 0.02 0.02 0.02 0.02 0.02 0.02 0.02 0.02 0.03 0.03 0.04 0.06 0.08 0.08 0.08 0.10 0.11 0.11 0.11 0.11 0.11 0.13 0.13 0.10 0.08 0.09 0.10 0.13 0.12 0.09 0.08 0.07 0.06 0.05 0.05 0.05 0.06
0.01 0.01 0.02 0.02 0.03 0.03 0.03 0.03 0.04 0.04 0.05 0.06 0.07 0.08 0.10 0.10 0.10 0.12 0.14 0.14 0.14 0.13 0.13 0.15 0.14 0.11 0.11 0.11 0.11 0.11 0.09 0.09 0.09 0.08 0.06 0.05 0.05 0.06
0.02 0.03 0.04 0.04 0.04 0.04 0.05 0.05 0.06 0.07 0.08 0.09 0.10 0.10 0.10 0.10 0.08 0.09 0.11 0.12 0.13 0.14 0.15 0.16 0.18 0.19 0.14 0.11 0.09 0.08 0.09 0.10 0.11 0.10 0.08 0.06 0.05 0.04
0.04 0.05 0.06 0.06 0.05 0.05 0.06 0.06 0.06 0.06 0.07 0.06 0.05 0.06 0.05 0.05 0.05 0.06 0.08 0.09 0.11 0.12 0.14 0.14 0.15 0.17 0.15 0.11 0.08 0.06 0.06 0.08 0.10 0.10 0.08 0.06 0.04 0.04
0.06 0.06 0.06 0.05 0.04 0.04 0.04 0.04 0.03 0.03 0.03 0.02 0.02 0.03 0.04 0.04 0.04 0.06 0.07 0.08 0.09 0.10 0.10 0.10 0.11 0.12 0.13 0.11 0.07 0.06 0.06 0.07 0.09 0.10 0.09 0.05 0.03 0.03
MSLP
1011.98 1011.84 1011.68 1011.46 1011.15 1010.73 1010.19 1009.51 1008.74 1007.89 1007.03 1006.21 1005.48 1004.90 1004.49 1004.27 1004.25 1004.41 1004.73 1005.16 1005.68 1006.23 1006.80 1007.34 1007.85 1008.32 1008.74 1009.12 1009.49 1009.86 1010.23 1010.64 1011.08 1011.57 1012.09 1012.64 1013.22 1013.81
1011.76 1011.54 1011.31 1011.05 1010.73 1010.33 1009.82 1009.21 1008.51 1007.73 1006.92 1006.13 1005.40 1004.79 1004.33 1004.04 1003.93 1003.99 1004.22 1004.57 1005.03 1005.54 1006.08 1006.62 1007.13 1007.60 1008.04 1008.44 1008.83 1009.21 1009.60 1010.01 1010.46 1010.95 1011.48 1012.05 1012.64 1013.24
1011.49 1011.16 1010.84 1010.52 1010.17 1009.77 1009.30 1008.75 1008.13 1007.44 1006.71 1005.98 1005.30 1004.69 1004.20 1003.86 1003.68 1003.66 1003.79 1004.06 1004.44 1004.89 1005.39 1005.91 1006.42 1006.90 1007.36 1007.80 1008.21 1008.62 1009.04 1009.47 1009.94 1010.44 1010.97 1011.54 1012.14 1012.74
1011.20 1010.76 1010.34 1009.93 1009.53 1009.11 1008.66 1008.16 1007.61 1007.01 1006.37 1005.73 1005.10 1004.53 1004.05 1003.68 1003.45 1003.36 1003.41 1003.60 1003.91 1004.30 1004.76 1005.25 1005.76 1006.26 1006.74 1007.21 1007.66 1008.11 1008.55 1009.02 1009.50 1010.01 1010.55 1011.12 1011.71 1012.32
1010.93 1010.38 1009.86 1009.36 1008.89 1008.44 1007.98 1007.50 1007.00 1006.48 1005.92 1005.36 1004.81 1004.29 1003.83 1003.46 1003.21 1003.07 1003.07 1003.20 1003.45 1003.79 1004.21 1004.68 1005.18 1005.69 1006.20 1006.70 1007.18 1007.66 1008.13 1008.62 1009.12 1009.64 1010.18 1010.75 1011.33 1011.93
1010.73 1010.09 1009.47 1008.89 1008.34 1007.83 1007.34 1006.87 1006.39 1005.91 1005.42 1004.93 1004.44 1003.98 1003.56 1003.21 1002.96 1002.81 1002.78 1002.86 1003.07 1003.38 1003.77 1004.23 1004.72 1005.23 1005.75 1006.26 1006.77 1007.27 1007.76 1008.25 1008.76 1009.28 1009.83 1010.39 1010.97 1011.56
1010.63 1009.93 1009.25 1008.59 1007.97 1007.39 1006.86 1006.36 1005.88 1005.41 1004.96 1004.51 1004.08 1003.66 1003.29 1002.97 1002.73 1002.59 1002.55 1002.62 1002.81 1003.10 1003.47 1003.91 1004.39 1004.90 1005.41 1005.93 1006.43 1006.93 1007.42 1007.91 1008.41 1008.92 1009.46 1010.01 1010.58 1011.17
1010.65 1009.93 1009.20 1008.49 1007.82 1007.19 1006.60 1006.06 1005.55 1005.08 1004.63 1004.21 1003.80 1003.42 1003.09 1002.81 1002.59 1002.47 1002.44 1002.51 1002.69 1002.97 1003.33 1003.75 1004.21 1004.70 1005.20 1005.69 1006.17 1006.64 1007.11 1007.58 1008.06 1008.55 1009.07 1009.61 1010.18 1010.78
1010.77 1010.07 1009.34 1008.61 1007.91 1007.23 1006.60 1006.02 1005.48 1004.99 1004.53 1004.10 1003.71 1003.36 1003.05 1002.79 1002.60 1002.50 1002.49 1002.57 1002.75 1003.02 1003.37 1003.77 1004.21 1004.67 1005.13 1005.58 1006.03 1006.45 1006.88 1007.31 1007.74 1008.21 1008.70 1009.23 1009.80 1010.40
1010.98 1010.32 1009.63 1008.92 1008.21 1007.53 1006.88 1006.27 1005.70 1005.18 1004.71 1004.27 1003.88 1003.53 1003.24 1003.00 1002.83 1002.74 1002.74 1002.83 1003.01 1003.27 1003.60 1003.98 1004.39 1004.81 1005.23 1005.64 1006.02 1006.40 1006.77 1007.14 1007.54 1007.96 1008.42 1008.93 1009.49 1010.09
1011.25 1010.66 1010.02 1009.36 1008.68 1008.01 1007.36 1006.75 1006.17 1005.64 1005.16 1004.72 1004.32 1003.97 1003.68 1003.45 1003.28 1003.20 1003.20 1003.29 1003.47 1003.72 1004.03 1004.38 1004.76 1005.14 1005.52 1005.87 1006.21 1006.53 1006.84 1007.16 1007.51 1007.88 1008.31 1008.80 1009.34 1009.95
1011.54 1011.02 1010.45 1009.85 1009.22 1008.60 1007.98 1007.39 1006.83 1006.31 1005.83 1005.39 1005.00 1004.65 1004.36 1004.12 1003.96 1003.87 1003.86 1003.94 1004.10 1004.34 1004.62 1004.95 1005.30 1005.65 1005.99 1006.31 1006.60 1006.88 1007.14 1007.42 1007.72 1008.06 1008.45 1008.91 1009.43 1010.03
1011.84 1011.38 1010.88 1010.34 1009.77 1009.20 1008.64 1008.10 1007.58 1007.09 1006.64 1006.22 1005.84 1005.50 1005.21 1004.97 1004.80 1004.70 1004.67 1004.73 1004.87 1005.08 1005.35 1005.65 1005.97 1006.30 1006.62 1006.92 1007.19 1007.44 1007.69 1007.94 1008.21 1008.51 1008.87 1009.30 1009.80 1010.38
1012.12 1011.71 1011.25 1010.77 1010.27 1009.77 1009.27 1008.79 1008.33 1007.90 1007.49 1007.11 1006.75 1006.43 1006.15 1005.91 1005.73 1005.61 1005.57 1005.60 1005.71 1005.89 1006.14 1006.42 1006.73 1007.05 1007.37 1007.67 1007.94 1008.20 1008.44 1008.69 1008.94 1009.24 1009.57 1009.97 1010.44 1010.98
1012.39 1012.00 1011.57 1011.13 1010.69 1010.24 1009.81 1009.40 1009.02 1008.65 1008.30 1007.97 1007.65 1007.36 1007.09 1006.86 1006.67 1006.54 1006.47 1006.48 1006.56 1006.71 1006.94 1007.21 1007.51 1007.84 1008.16 1008.48 1008.78 1009.07 1009.33 1009.60 1009.87 1010.16 1010.49 1010.86 1011.30 1011.80
1012.64 1012.25 1011.84 1011.43 1011.02 1010.63 1010.27 1009.92 1009.61 1009.31 1009.02 1008.75 1008.49 1008.23 1007.98 1007.75 1007.56 1007.41 1007.32 1007.30 1007.36 1007.49 1007.69 1007.95 1008.25 1008.59 1008.94 1009.29 1009.63 1009.96 1010.27 1010.57 1010.87 1011.17 1011.50 1011.86 1012.27 1012.73
1012.87 1012.48 1012.07 1011.68 1011.30 1010.95 1010.64 1010.36 1010.11 1009.88 1009.65 1009.44 1009.22 1009.00 1008.78 1008.56 1008.37 1008.21 1008.10 1008.06 1008.08 1008.19 1008.37 1008.61 1008.92 1009.26 1009.63 1010.02 1010.41 1010.78 1011.14 1011.49 1011.82 1012.16 1012.49 1012.85 1013.23 1013.65
1013.09 1012.69 1012.30 1011.92 1011.57 1011.25 1010.98 1010.75 1010.56 1010.38 1010.22 1010.05 1009.87 1009.69 1009.49 1009.29 1009.10 1008.93 1008.80 1008.73 1008.73 1008.81 1008.96 1009.19 1009.48 1009.83 1010.21 1010.62 1011.04 1011.46 1011.87 1012.26 1012.63 1012.99 1013.34 1013.69 1014.05 1014.43
1013.27 1012.89 1012.52 1012.17 1011.85 1011.57 1011.34 1011.15 1011.00 1010.87 1010.75 1010.63 1010.49 1010.33 1010.15 1009.96 1009.77 1009.60 1009.46 1009.36 1009.33 1009.38 1009.50 1009.70 1009.97 1010.30 1010.68 1011.10 1011.53 1011.97 1012.40 1012.81 1013.21 1013.58 1013.94 1014.29 1014.64 1014.99
1013.42 1013.08 1012.75 1012.44 1012.16 1011.93 1011.74 1011.60 1011.48 1011.39 1011.30 1011.21 1011.09 1010.96 1010.79 1010.61 1010.42 1010.24 1010.09 1009.97 1009.91 1009.92 1010.01 1010.17 1010.40 1010.70 1011.06 1011.45 1011.87 1012.30 1012.72 1013.14 1013.54 1013.92 1014.27 1014.61 1014.94 1015.27
1013.50 1013.24 1012.97 1012.72 1012.50 1012.32 1012.18 1012.08 1012.00 1011.94 1011.88 1011.81 1011.71 1011.59 1011.44 1011.26 1011.08 1010.89 1010.72 1010.58 1010.50 1010.48 1010.52 1010.64 1010.82 1011.07 1011.37 1011.72 1012.09 1012.48 1012.88 1013.26 1013.64 1013.99 1014.32 1014.64 1014.95 1015.24
1013.50 1013.32 1013.14 1012.97 1012.82 1012.70 1012.62 1012.57 1012.53 1012.50 1012.47 1012.41 1012.33 1012.22 1012.07 1011.90 1011.72 1011.53 1011.35 1011.21 1011.10 1011.05 1011.05 1011.12 1011.24 1011.43 1011.66 1011.94 1012.24 1012.56 1012.89 1013.22 1013.54 1013.85 1014.14 1014.42 1014.69 1014.96
1013.39 1013.30 1013.20 1013.12 1013.06 1013.02 1013.00 1013.00 1013.01 1013.01 1013.00 1012.97 1012.90 1012.80 1012.66 1012.50 1012.32 1012.14 1011.96 1011.81 1011.69 1011.61 1011.58 1011.60 1011.67 1011.78 1011.94 1012.13 1012.35 1012.58 1012.83 1013.07 1013.32 1013.56 1013.79 1014.02 1014.24 1014.47
Thickness
5746 5744 5743 5744 5744 5744 5742 5740 5735 5732 5734 5737 5739 5742 5741 5740 5737 5736 5735 5732 5730 5728 5727 5726 5724 5722 5721 5719 5717 5716 5715 5713 5712 5711 5710 5710 5710 5709
5742 5740 5739 5741 5741 5740 5740 5739 5737 5733 5731 5735 5735 5738 5736 5737 5733 5733 5732 5729 5727 5726 5724 5722 5721 5719 5718 5716 5714 5713 5712 5710 5709 5708 5707 5707 5707 5706
5738 5737 5736 5735 5736 5737 5736 5735 5733 5731 5727 5730 5732 5733 5730 5729 5729 5729 5729 5727 5726 5722 5721 5719 5717 5716 5714 5713 5711 5710 5708 5707 5706 5705 5704 5704 5703 5703
5735 5733 5732 5732 5730 5731 5731 5730 5729 5728 5725 5722 5724 5725 5724 5724 5724 5723 5726 5726 5725 5721 5718 5716 5714 5712 5711 5709 5708 5706 5705 5704 5703 5702 5701 5700 5699 5699
5731 5729 5729 5727 5725 5726 5725 5725 5725 5725 5723 5721 5719 5720 5720 5720 5718 5719 5721 5719 5721 5719 5715 5712 5710 5709 5707 5705 5704 5702 5701 5700 5699 5698 5697 5696 5695 5694
5726 5725 5725 5723 5721 5720 5720 5719 5719 5718 5717 5716 5715 5714 5714 5714 5713 5713 5713 5714 5715 5717 5713 5710 5707 5705 5704 5702 5701 5699 5698 5696 5695 5694 5693 5691 5690 5689
5721 5721 5720 5718 5715 5714 5715 5715 5713 5712 5711 5710 5710 5710 5709 5707 5707 5709 5708 5709 5709 5711 5710 5708 5706 5705 5703 5700 5698 5696 5694 5693 5691 5690 5688 5686 5685 5683
5715 5715 5715 5714 5710 5707 5707 5706 5706 5706 5705 5704 5705 5704 5703 5704 5704 5704 5703 5702 5701 5706 5703 5704 5705 5703 5702 5700 5697 5694 5691 5689 5687 5686 5684 5682 5680 5678
5710 5709 5711 5711 5707 5706 5703 5700 5700 5698 5697 5698 5699 5699 5699 5700 5698 5698 5698 5697 5697 5700 5697 5697 5699 5697 5699 5698 5694 5690 5687 5685 5683 5681 5679 5677 5675 5674
5705 5703 5702 5701 5701 5697 5697 5697 5696 5696 5695 5694 5694 5695 5695 5694 5692 5692 5692 5691 5692 5694 5693 5690 5694 5693 5695 5693 5689 5686 5683 5680 5678 5676 5674 5672 5670 5669
5700 5699 5696 5695 5691 5687 5688 5688 5689 5690 5690 5689 5688 5688 5687 5686 5686 5686 5686 5685 5686 5688 5689 5686 5688 5688 5688 5688 5685 5681 5678 5675 5673 5671 5669 5667 5665 5663
5694 5693 5689 5686 5682 5679 5680 5681 5680 5682 5683 5685 5683 5682 5682 5682 5680 5680 5681 5681 5681 5682 5685 5681 5681 5680 5679 5681 5680 5676 5672 5670 5667 5665 5663 5661 5659 5659
5686 5686 5685 5677 5674 5672 5671 5673 5673 5672 5675 5676 5677 5678 5679 5679 5679 5678 5677 5676 5676 5676 5680 5677 5674 5673 5671 5671 5671 5670 5668 5666 5663 5661 5658 5656 5654 5653
5676 5677 5676 5669 5667 5665 5665 5666 5664 5663 5667 5668 5669 5670 5672 5673 5674 5674 5672 5671 5670 5670 5671 5670 5668 5666 5664 5662 5662 5662 5661 5661 5659 5658 5656 5651 5649 5648
5669 5666 5664 5661 5660 5661 5659 5658 5657 5659 5661 5662 5663 5665 5666 5667 5667 5667 5666 5665 5664 5664 5665 5663 5661 5660 5657 5656 5656 5655 5653 5652 5653 5652 5650 5649 5647 5645
5660 5659 5655 5654 5654 5654 5654 5654 5653 5655 5655 5656 5658 5659 5660 5660 5660 5660 5659 5658 5656 5657 5658 5656 5654 5652 5650 5650 5649 5647 5646 5645 5645 5644 5643 5642 5642 5641
5649 5650 5651 5650 5650 5651 5651 5650 5649 5649 5648 5649 5650 5650 5651 5652 5653 5653 5651 5651 5650 5649 5649 5649 5647 5645 5643 5642 5641 5641 5640 5639 5638 5637 5634 5634 5634 5635
5639 5643 5643 5643 5643 5643 5643 5642 5642 5641 5641 5641 5641 5640 5641 5643 5645 5645 5645 5643 5642 5643 5642 5642 5640 5637 5635 5635 5634 5634 5633 5632 5630 5628 5627 5627 5627 5628
5633 5636 5636 5636 5635 5635 5634 5634 5634 5634 5632 5631 5631 5631 5632 5633 5634 5635 5635 5634 5634 5634 5635 5634 5633 5631 5628 5627 5628 5626 5625 5624 5622 5620 5620 5620 5620 5622
5630 5629 5629 5628 5627 5626 5625 5625 5625 5624 5623 5622 5622 5622 5623 5624 5625 5625 5626 5626 5626 5626 5626 5626 5625 5624 5623 5622 5621 5620 5617 5616 5615 5613 5613 5613 5613 5613
5624 5623 5621 5620 5618 5617 5616 5615 5614 5614 5613 5614 5614 5613 5614 5616 5616 5617 5618 5615 5616 5618 5617 5617 5616 5615 5615 5614 5612 5612 5610 5607 5607 5606 5606 5605 5605 5606
5617 5615 5613 5612 5610 5609 5608 5607 5606 5606 5605 5605 5605 5606 5606 5608 5609 5609 5610 5610 5609 5610 5610 5610 5609 5608 5607 5606 5605 5603 5601 5599 5597 5597 5597 5598 5599 5600
5610 5607 5605 5603 5601 5600 5600 5599 5598 5598 5598 5597 5597 5597 5598 5599 5601 5602 5602 5602 5601 5602 5602 5601 5601 5601 5600 5599 5598 5596 5594 5593 5592 5591 5591 5590 5590 5591